Location: Saint-Palais-sur-Mer
(45.6429°N, 1.0859°W)
Time: 18:20:32
(UTC+02:00)

BlueWalker 3 - Pass Details

Date: 18 May 2026
Orbit: 447 x 457 km, 53.2° (Epoch: 5 June)

Event Time Altitude Azimuth Distance (km) Brightness Sun altitude
Rises 04:34:57 0° 296° (WNW) 2,448 5.3 -16.0°
Reaches altitude 10° 04:37:21 10° 311° (NW) 1,576 4.5 -15.8°
Maximum altitude 04:40:20 25° 8° (N) 953 4.0 -15.5°
Drops below altitude 10° 04:43:19 10° 66° (ENE) 1,577 5.5 -15.1°
Sets 04:45:43 0° 80° (E) 2,449 6.3 -14.9°
